Regional Weather Roundup
Issued by NWS

Home | Current Version | Previous Version | Graphics & Text | Print | Product List | Glossary On
Versions: 1 2 3 4 5 6 7 8 9 10 11 12 13 14 15 16 17 18 19 20 21 22 23 24 25 26 27 28 29 30 31 32 33 34 35 36 37 38 39 40 41 42 43 44 45 46 47 48 49 50
000
ASUS43 KMPX 101201
RWRMN
WEATHER ROUNDUP FOR MINNESOTA
NATIONAL WEATHER SERVICE TWIN CITIES/CHANHASSEN MN
700 AM CDT THU JUL 10 2014


NOTE: "FAIR" INDICATES FEW OR NO CLOUDS BELOW 12,000 FEET WITH NO
SIGNIFICANT WEATHER AND/OR OBSTRUCTIONS TO VISIBILITY. N/A MEANS
CURRENT SKY AND/OR WEATHER CONDITIONS ARE NOT AVAILABLE.

MNZ060>063-068>070-101300-
   Twin Cities Metro

CITY           SKY/WX    TMP DP  RH WIND       PRES   REMARKS
TWIN CITIES    FAIR      63  58  83 SE5       30.05R
6HR MIN TEMP:  61; 6HR MAX TEMP:  66;

ST PAUL        FAIR      63  59  87 S5        30.06R
CRYSTAL        FAIR      63  57  81 S3        30.04R
BLAINE         FAIR      64  61  88 SE3       30.05R
LAKEVILLE      PTSUNNY   55  55 100 CALM      30.05S
EDEN PRAIRIE   PTSUNNY   64  57  78 E5        30.04R
6HR MIN TEMP:  60; 6HR MAX TEMP:  65;

SOUTH ST PAUL  FAIR      63  58  83 CALM      30.05S
LAKE ELMO      FAIR      61  57  88 CALM      30.07R
$$
MNZ001>005-007-008-013>017-022>024-027-028-101300-
   Northwest Minnesota

CITY           SKY/WX    TMP DP  RH WIND       PRES   REMARKS
BEMIDJI        FAIR      49  47  93 CALM      30.02R
HALLOCK        FAIR      57  54  88 SE8       29.94F
ROSEAU         FAIR      54  48  82 S3        29.98R
WARROAD          N/A     55  52  88 CALM      29.98S FOG
THIEF RVR FALL FAIR      57  52  82 SE6       29.98S
CROOKSTON      FAIR      57  54  88 SE8       29.97S
FOSSTON        FAIR      57  52  82 SE6       30.00S
DETROIT LAKES  FAIR      59  55  88 SE5       30.01S
PARK RAPIDS    FAIR      53  51  93 CALM      30.02R
$$
MNZ006-009>011-018-025>026-101300-
   North Central Minnesota

CITY           SKY/WX    TMP DP  RH WIND       PRES   REMARKS
BAUDETTE       FAIR      54  51  90 CALM      30.00S
FLAG ISLAND    FAIR      61  55  82 SW6       29.96S
INTL FALLS     FAIR      52  50  93 CALM      30.01R
6HR MIN TEMP:  44; 6HR MAX TEMP:  52;

WASKISH        FAIR      54  52  94 CALM      30.00F
LONGVILLE      FAIR      50  48  93 CALM      30.02S
GRAND RAPIDS   FAIR      54  52  94 SE5       30.04S
CRANE LAKE     FAIR      52  50  93 CALM      30.05S
ORR            FAIR      54  48  82 CALM      30.02S
COOK           FAIR      54  52  94 SE3       30.05S
$$
MNZ012-019>021-037-101300-
   Northeast Minnesota

CITY           SKY/WX    TMP DP  RH WIND       PRES   REMARKS
DULUTH         FAIR      59  51  75 SE3       30.07R
6HR MIN TEMP:  54; 6HR MAX TEMP:  59;

ELY            FAIR      54  50  87 CALM      30.06S
HIBBING        FAIR      50  47  89 CALM      30.06R
EVELETH        FAIR      50  48  93 CALM      30.07S
DULUTH HARBOR  PTSUNNY   55  52  88 N6        30.07S
TWO HARBORS    PTSUNNY   52  46  82 CALM      30.06R
SILVER BAY     FAIR      46  46 100 CALM      30.07R
GRAND MARAIS     N/A     45  43  93 CALM      30.08R
G MARAIS ARPRT CLOUDY    50  46  87 CALM      30.10R
$$
MNZ029>031-032-039>041-046>048-054>057-064-101300-
   West Central Minnesota

CITY           SKY/WX    TMP DP  RH WIND       PRES   REMARKS
FERGUS FALLS   FAIR      61  52  72 SE6       30.00S
WHEATON        FAIR      54  52  94 SE9       30.00F
MORRIS         FAIR      57  55  94 SE5       30.00S
ALEXANDRIA     FAIR      60  51  72 SE6       30.03S
ELBOW LAKE     FAIR      61  52  72 SE7       30.00S
WADENA         FAIR      52  52 100 CALM      30.01F
GLENWOOD       FAIR      55  54  94 SE5       30.03S
APPLETON       FAIR      57  54  88 E5        30.00S
BENSON         FAIR      61  54  77 SE6       30.01S
ORTONVILLE     FAIR      59  54  82 SE5       29.99S
MADISON        FAIR      59  55  88 CALM      30.00S
WILLMAR        FAIR      63  54  72 E6        30.04R
$$
MNZ033>034-036-042>043-049>051-058-059-101300-
   Central Minnesota

CITY           SKY/WX    TMP DP  RH WIND       PRES   REMARKS
ST CLOUD       FOG       56  54  93 CALM      30.04R VSB 1/2
6HR MIN TEMP:  51; 6HR MAX TEMP:  61;

SAUK CENTRE    FAIR      54  53  99 CALM      30.04R
PAYNESVILLE    FAIR      51  51 100 CALM      30.04S
AITKIN         FAIR      55  50  82 CALM      30.02S
PINE RIVER     FOG       52  52 100 CALM      30.06S VSB<1/4
BRAINERD       FAIR      60  53  77 CALM      30.04R
STAPLES        FAIR      52  52 100 CALM      30.02S
LONG PRAIRIE   FAIR      54  52  94 CALM      30.04R
LITTLE FALLS   FAIR      50  50 100 CALM      30.04R
LITCHFIELD       N/A     61  59  94 SE3       30.04S
BUFFALO        FAIR      61  56  84 CALM      30.05R
MAPLE LAKE     FAIR      61  61  99 CALM      30.05R
$$
MNZ037-044-045-052-053-101300-
   East Central Minnesota

CITY           SKY/WX    TMP DP  RH WIND       PRES   REMARKS
PRINCETON      FAIR      59  57  94 CALM      30.04S
MORA           FAIR      54  52  94 CALM      30.06S
CAMBRIDGE      FAIR      63  54  72 SE5       30.03S
RUSH CITY      FAIR      58  56  91 CALM      30.06R
MOOSE LAKE     FAIR      52  52 100 CALM      30.04S
HINCKLEY       FAIR      55  55 100 CALM      30.06S
CLOQUET        FAIR      55  52  88 CALM      30.06S
MCGREGOR       FAIR      55  54  94 CALM      30.05S
$$
MNZ071>073-080-081-089-090-097-098-101300-
   Southwest Minnesota

CITY           SKY/WX    TMP DP  RH WIND       PRES   REMARKS
MONTEVIDEO     FAIR      59  54  82 S6        30.02R
GRANITE FALLS  FAIR      58  53  83 CALM      30.03R HAZE
CANBY          FAIR      56  54  94 CALM      30.01S
MARSHALL       FAIR      61  54  77 MISG      30.01S
REDWOOD FALLS  FAIR      61  57  87 SE5       30.02R
OLIVIA         FAIR      61  52  72 CALM      30.02R
PIPESTONE      FAIR      61  55  82 SE3       30.03S
WINDOM         FAIR      63  57  82 S3        30.05R
WORTHINGTON    FAIR      63  59  88 S5        30.06R
JACKSON        FAIR      61  57  88 S6        30.06R
TRACY          FAIR      61  58  87 CALM      30.02S
SLAYTON        FAIR      58  57  95 CALM      30.04S FOG
$$
MNZ065>067-074>077-082>085-091>093-101300-
   South Central Minnesota

CITY           SKY/WX    TMP DP  RH WIND       PRES   REMARKS
MANKATO        FAIR      61  54  77 SE6       30.05R
NEW ULM        FAIR      61  59  94 SE3       30.04R
ST JAMES       FAIR      61  55  82 SE3       30.05R
FAIRMONT       FAIR      61  55  82 S7        30.06R
GLENCOE        FAIR      61  55  82 CALM      30.03S
FARIBAULT      FAIR      64  55  72 S5        30.06R
OWATONNA       FAIR      61  57  88 CALM      30.06S
WASECA         FAIR      59  54  82 CALM      30.07S
ALBERT LEA     FAIR      61  59  94 CALM      30.07R FOG
$$
MNZ078>079-086>088-094>096-101300-
   Southeast Minnesota

CITY           SKY/WX    TMP DP  RH WIND       PRES   REMARKS
ROCHESTER      PTSUNNY   59  56  89 SE8       30.09R
6HR MIN TEMP:  57; 6HR MAX TEMP:  61;

RED WING       FAIR      63  61  94 SE3       30.05S
STANTON        PTSUNNY   60  56  87 CALM      30.05R
DODGE CENTER   PTSUNNY   61  57  88 CALM      30.07S
WINONA         FAIR      61  59  94 S3        30.08R
AUSTIN         FAIR      59  57  94 SE3       30.07R
PRESTON        FAIR      60  57  89 S6        30.09S
$$
ABBREVIATIONS USED IN REMARKS
   TC - TEMPERATURES IN CELSIUS
  WCI - WIND CHILL INDEX
   HX - HEAT INDEX
  VSB - VISIBILITY
$$



USA.gov is the U.S. government's official web portal to all federal, state and local government web resources and services.